Theta_e
323 330 331 329 332 334 336 337 337 338 338 338 337 338 338 336 336 335 336 336 333 331 331 329 328 328 333 328 325 332 327 331 333 332 330 330 330 328 329 331 332 333 333 338 337 336 334 337 334 333 332 329 332 331 332 332 334 332 332 332 331 328 329 332 331 331 327 325 329 328 329 333 334 333 333 333 332 333 332 330 330 330 330 328 328
322 325 327 328 329 336 337 337 336 334 336 336 336 336 337 338 336 335 335 335 336 336 337 335 336 326 330 325 326 324 321 326 327 329 329 333 335 333 336 336 333 335 334 335 334 336 332 338 331 333 335 333 335 335 334 333 332 332 333 330 331 330 327 331 330 329 324 322 321 321 326 330 332 333 333 331 336 331 327 330 330 330 328 328 328
321 324 324 324 331 334 335 337 337 337 337 336 336 336 337 337 336 334 333 334 335 336 334 332 332 334 335 333 332 325 328 330 327 329 330 324 333 332 336 337 335 329 333 335 337 328 331 333 332 334 334 335 333 331 332 330 331 330 331 329 327 330 330 331 330 329 324 325 324 321 319 319 324 328 331 333 332 330 328 328 330 329 328 330 330
320 322 324 325 327 330 333 335 335 336 335 335 335 334 335 335 335 333 332 333 334 334 333 333 334 333 333 331 331 330 326 328 330 330 329 329 326 329 333 336 333 329 329 325 325 331 337 334 326 329 330 330 337 330 331 330 329 329 328 327 328 324 327 327 331 331 328 325 317 318 320 319 315 319 323 329 335 334 335 333 333 329 331 332 331
320 322 324 324 322 325 331 333 334 334 334 333 334 333 334 336 334 332 331 332 332 332 332 332 332 331 331 331 328 326 328 328 327 326 326 325 327 329 332 334 330 330 330 327 325 325 327 326 329 328 327 327 324 329 327 327 328 330 329 329 328 327 324 326 327 330 329 330 323 319 318 316 316 321 324 325 331 330 332 335 335 335 332 331 330
323 323 323 325 326 326 331 334 332 332 332 334 334 334 334 335 333 332 331 331 330 332 331 331 330 328 328 325 323 323 323 325 324 323 326 327 321 331 328 328 328 329 325 325 326 327 327 326 323 322 322 323 324 323 320 323 322 321 328 331 331 329 326 325 324 328 328 328 328 326 324 317 317 321 321 316 327 329 330 332 333 332 332 332 332
323 325 325 325 325 323 322 322 323 328 331 335 334 334 334 335 333 332 331 330 331 331 330 329 328 328 327 325 324 324 323 327 326 329 325 325 329 327 329 333 327 327 327 326 327 326 327 326 327 325 324 325 322 321 321 320 319 319 321 321 321 327 329 323 323 324 327 328 327 327 326 325 325 321 317 318 315 323 327 328 328 332 331 330 331
319 320 323 325 324 323 321 323 322 326 333 334 333 334 333 334 332 331 331 329 330 330 327 328 326 326 327 326 325 325 325 323 327 327 328 327 327 326 326 330 327 328 328 325 323 323 325 324 325 323 325 319 318 318 318 320 322 323 322 323 322 322 323 322 324 326 323 323 327 325 324 326 325 323 322 319 317 315 319 326 329 330 330 330 330
318 319 320 322 323 324 324 324 325 323 332 333 333 333 334 335 333 332 330 330 331 329 326 327 328 326 327 326 326 326 325 325 324 323 326 327 327 330 327 323 326 326 323 322 321 321 323 323 322 321 319 319 318 318 319 321 322 322 322 322 321 319 319 320 319 318 317 318 323 324 324 323 323 323 322 323 319 315 316 318 320 328 328 329 329
315 318 320 323 325 325 325 325 325 323 332 335 334 334 334 334 332 331 330 329 330 328 327 327 328 326 327 326 327 324 323 323 323 323 324 327 326 326 326 327 323 326 326 325 324 321 323 323 321 322 324 323 322 322 321 322 322 321 322 322 322 321 321 319 317 318 316 317 317 318 318 321 322 321 321 321 319 318 313 315 320 318 317 324 330
313 314 317 322 325 326 326 325 325 324 330 334 333 333 332 334 331 330 329 330 329 327 327 327 327 326 326 327 327 323 323 324 321 322 322 325 324 325 327 325 325 324 325 326 325 324 323 325 325 323 324 325 322 321 323 322 324 325 323 323 322 322 321 321 321 321 319 315 316 316 314 315 314 314 314 315 314 313 313 313 313 312 317 318 327
312 313 315 322 323 323 324 322 325 328 333 333 334 334 332 333 330 329 329 330 329 326 327 327 326 326 327 326 327 324 323 323 321 321 322 323 324 324 327 325 324 324 327 325 325 326 325 325 326 325 325 325 323 322 324 322 321 321 322 322 321 321 321 319 318 317 319 318 315 315 317 317 314 313 314 315 313 312 312 309 309 310 311 311 318
313 314 316 320 324 327 327 325 327 329 331 332 334 334 332 333 331 328 328 330 328 326 326 327 326 325 326 325 328 325 325 325 322 323 323 324 322 323 324 323 323 322 324 323 324 326 325 325 328 322 321 323 323 321 320 323 321 320 320 320 320 319 319 319 317 317 317 316 318 317 316 314 315 317 318 317 317 316 315 311 311 311 309 310 311
314 316 319 320 321 323 326 324 326 330 331 331 333 334 331 332 331 328 327 330 329 326 326 326 326 326 328 325 328 326 326 326 323 323 323 324 324 324 324 324 322 323 323 324 324 326 324 327 326 324 323 322 322 323 322 322 324 317 320 320 319 320 320 318 318 317 317 316 317 316 315 314 316 316 317 317 316 314 311 309 308 310 310 309 311
317 318 320 321 323 324 327 330 333 334 331 331 332 332 332 331 331 328 327 330 328 325 325 325 326 327 328 325 327 325 327 327 325 325 324 325 324 324 325 326 324 323 323 326 323 326 326 326 325 323 323 324 322 324 324 322 322 318 319 321 320 319 319 317 317 317 317 316 316 317 318 315 314 312 316 314 314 313 313 312 310 306 306 309 308
317 318 320 321 323 324 325 327 329 330 331 332 330 332 332 332 331 329 327 329 328 325 325 325 326 327 328 326 326 326 325 326 326 325 326 328 327 324 326 327 326 325 324 326 323 325 326 325 324 323 324 323 324 322 322 320 321 324 317 320 318 319 319 319 318 317 316 315 315 316 315 312 313 315 313 313 314 315 314 316 313 308 304 302 305
318 319 319 320 320 322 322 323 326 329 328 331 332 332 331 331 330 328 326 328 328 326 326 325 326 327 327 328 326 327 325 325 325 326 326 328 330 327 326 327 330 326 325 326 323 326 326 325 322 322 322 322 323 323 322 321 320 324 319 320 320 321 320 317 319 317 317 317 316 316 315 311 312 315 313 315 315 313 312 313 314 311 310 304 301
317 318 319 319 319 320 321 323 323 325 327 328 327 332 333 334 330 327 323 324 327 327 326 326 326 326 326 328 328 329 327 327 326 328 328 325 329 329 328 325 328 328 326 326 324 324 325 325 324 322 322 322 321 321 320 320 320 322 318 319 319 320 318 318 319 318 317 316 315 314 316 310 313 313 314 316 312 311 313 312 310 311 312 308 306
316 316 317 317 318 319 320 321 321 323 327 329 328 330 332 329 329 326 321 320 323 327 327 327 327 327 327 327 329 329 331 330 329 331 328 326 327 328 329 327 328 328 326 325 325 323 325 324 324 322 321 321 321 321 322 319 318 320 317 319 318 318 317 317 318 316 318 317 315 314 315 312 313 314 314 312 311 313 312 309 308 309 310 309 308
313 315 316 317 317 318 318 320 319 321 323 326 328 331 328 331 328 324 324 323 323 326 328 327 327 328 328 328 329 328 329 330 331 332 328 327 327 327 328 328 327 327 328 326 324 323 323 323 322 322 322 320 320 321 319 320 318 319 315 317 316 317 317 316 315 316 314 317 313 313 311 312 311 310 313 311 313 313 314 310 309 310 307 310 310
312 313 315 316 317 317 317 319 319 320 321 323 323 325 327 329 328 325 323 321 321 323 323 328 330 328 328 329 330 330 331 330 330 330 329 329 330 329 328 328 327 326 326 326 324 323 321 322 321 321 320 320 319 319 319 320 318 318 317 317 316 314 315 315 316 314 316 314 313 313 310 312 312 311 312 312 310 311 310 312 309 307 307 309 309
311 311 313 314 315 317 317 318 318 319 320 320 322 322 322 325 324 326 324 324 325 324 326 326 328 330 329 329 329 330 329 330 329 331 330 330 328 328 328 328 327 327 325 325 323 324 322 322 321 320 320 320 320 318 319 319 318 317 318 319 318 314 314 315 315 312 314 317 314 311 311 310 311 310 311 307 307 307 306 304 306 307 303 305 306
309 310 310 311 313 313 313 315 316 319 319 320 320 321 321 322 322 323 323 324 323 322 324 327 325 326 326 327 327 327 327 327 329 328 327 326 327 328 329 327 326 325 324 322 323 323 322 321 321 321 320 320 320 319 319 318 318 317 316 317 319 314 314 315 315 314 311 312 312 311 311 312 314 310 311 311 311 310 308 305 304 305 304 306 305
309 310 311 311 311 313 312 312 312 313 316 317 320 321 321 321 321 321 322 323 324 324 324 325 324 326 326 326 326 326 326 326 326 327 324 324 325 328 325 325 326 326 323 325 324 321 321 321 320 320 320 320 320 320 320 318 318 317 316 316 316 316 316 315 315 312 312 312 311 311 312 313 312 310 310 310 309 309 309 306 304 304 305 305 306
308 308 309 310 309 309 308 309 310 311 312 314 313 314 315 317 320 321 322 323 324 324 324 324 323 323 325 325 325 327 327 327 325 325 324 323 323 323 324 322 323 322 322 323 322 321 320 320 320 319 320 320 320 320 319 319 319 319 318 318 316 315 315 314 315 314 316 313 311 311 311 311 311 309 309 309 309 308 305 305 304 303 303 304 307
307 308 309 310 307 306 307 309 308 309 309 310 312 312 312 313 315 318 317 321 322 322 323 323 322 323 324 324 325 326 324 322 322 322 324 326 325 326 325 324 323 322 323 323 321 322 321 320 320 319 319 319 320 320 319 319 318 318 318 317 317 316 316 314 315 315 313 313 312 311 312 311 309 309 309 309 308 307 306 305 304 303 303 303 304
307 308 307 308 308 309 307 308 307 308 309 309 309 309 310 312 313 313 313 315 319 319 320 320 322 322 322 323 325 325 325 324 323 323 324 325 325 326 326 325 325 324 322 321 321 321 322 323 322 321 322 320 320 320 320 319 319 318 317 317 317 317 316 316 316 314 313 312 311 311 311 311 310 309 309 308 307 306 306 304 304 304 303 302 302
308 308 307 306 307 308 309 309 309 306 306 307 307 308 308 310 309 310 311 317 316 320 319 317 321 321 320 323 324 325 325 323 322 323 323 325 326 321 319 320 322 322 323 322 322 324 322 321 320 319 319 321 323 321 321 320 319 318 318 317 317 316 314 315 316 314 314 313 312 311 311 310 309 309 308 307 305 301 301 299 299 299 300 299 298
306 307 308 307 307 307 309 308 307 308 307 308 306 307 310 309 309 309 311 312 315 318 317 316 318 319 322 321 322 322 326 325 323 323 323 323 323 324 322 321 321 321 324 324 322 321 321 320 320 320 321 321 321 321 320 319 317 319 321 317 316 315 314 313 313 312 313 312 311 311 310 310 310 308 302 301 301 301 300 296 297 298 298 298 298
304 306 307 308 308 307 307 309 311 306 306 305 306 306 307 308 308 308 310 312 314 318 315 312 314 317 318 319 320 323 322 321 320 320 322 324 323 323 323 323 323 324 324 324 321 320 320 321 319 319 320 320 320 322 316 309 305 314 317 317 316 315 313 312 311 311 311 311 311 310 311 313 308 305 301 298 297 297 298 299 297 297 297 297 297
304 306 307 306 307 307 307 306 307 307 307 307 309 306 306 307 307 306 307 309 308 310 314 317 314 317 315 317 318 318 320 318 320 321 321 321 319 322 322 322 323 324 324 325 324 321 321 320 318 318 318 319 323 321 306 302 303 300 315 317 314 313 313 312 312 310 309 309 309 307 308 310 305 303 301 297 296 295 294 295 295 297 299 298 296
304 305 306 306 305 306 307 306 306 307 306 305 306 305 305 306 306 306 306 308 312 316 316 316 315 317 315 314 316 314 316 317 319 318 319 318 318 317 317 319 320 322 323 324 323 322 321 320 319 318 318 319 315 301 298 301 302 302 306 317 314 313 312 311 310 308 308 310 310 309 308 309 306 306 305 304 299 295 294 293 293 293 293 293 294
304 304 305 305 305 305 307 306 306 305 304 305 305 306 307 306 308 313 306 312 309 311 308 314 315 310 309 314 315 315 314 315 314 315 318 319 317 316 315 316 318 321 321 321 322 322 322 321 320 318 318 316 308 293 295 297 297 299 302 308 312 311 308 307 307 307 309 308 307 307 306 307 307 308 305 302 301 301 296 294 295 294 293 293 291
304 304 304 305 307 306 307 307 306 306 306 306 308 305 307 312 307 306 308 306 305 306 309 308 313 313 314 312 311 310 310 312 314 314 315 313 313 313 316 317 317 317 320 319 320 320 320 320 320 320 316 306 302 293 293 294 295 296 298 303 308 308 307 307 306 306 307 307 306 305 304 303 303 303 303 303 303 302 302 301 300 298 297 298 294
304 305 304 306 306 306 308 306 307 305 308 308 306 307 309 307 313 307 309 309 306 305 310 313 314 312 312 311 309 310 312 311 312 311 312 311 312 313 315 316 316 317 316 318 318 317 318 318 318 313 304 302 296 292 292 292 293 295 296 300 305 305 304 304 305 305 306 307 306 306 304 301 301 302 305 300 302 301 300 300 298 298 298 298 298
304 305 305 305 304 305 305 306 307 305 304 305 306 307 306 307 307 307 308 307 306 306 305 312 312 312 308 309 310 312 313 312 312 313 313 312 313 315 314 316 316 316 316 317 317 317 317 317 309 304 299 295 294 290 291 291 292 294 297 304 303 303 303 302 303 305 305 305 306 304 302 302 301 302 295 293 296 299 298 297 296 296 296 296 297
304 304 304 307 307 304 306 307 306 305 305 305 305 306 307 306 305 305 305 305 307 306 304 309 309 308 309 309 311 310 312 313 312 311 310 311 312 312 313 314 313 315 315 315 315 316 316 307 304 301 296 293 293 291 290 291 291 294 298 302 301 300 300 302 302 304 304 305 304 303 302 301 302 301 294 291 291 294 297 295 295 294 295 295 295
303 303 303 305 305 304 305 307 305 306 305 304 306 307 306 305 305 304 304 304 303 304 305 305 306 306 308 309 309 308 309 311 313 311 312 314 315 315 313 315 313 313 313 315 315 309 304 304 301 298 296 294 292 291 290 290 290 291 296 302 300 302 302 302 302 304 303 303 302 306 304 300 300 299 289 290 289 294 295 294 293 293 292 292 293
301 302 303 302 305 303 303 303 302 301 304 307 306 306 304 304 304 305 304 303 305 305 306 306 307 307 307 308 309 309 309 310 309 310 313 312 312 312 312 314 314 314 312 307 306 304 302 300 299 297 297 294 293 292 290 289 289 290 296 299 298 299 300 300 300 300 303 303 303 303 302 298 295 291 289 288 288 291 292 292 292 291 291 290 292
301 302 303 301 302 302 302 302 301 303 306 305 305 304 305 304 304 304 304 304 305 306 306 307 307 308 309 309 312 311 312 311 309 311 312 312 313 312 313 313 314 310 306 304 302 300 298 297 296 296 295 294 293 293 292 289 290 290 290 297 298 296 296 297 298 297 297 298 297 298 294 288 289 288 288 288 288 289 290 290 290 289 289 289 291
300 300 300 299 299 300 299 300 301 303 303 304 304 304 304 303 304 304 304 305 306 307 306 306 307 307 308 308 309 310 313 314 313 312 312 312 312 312 312 312 311 307 305 303 300 298 297 296 296 295 295 294 294 292 292 289 290 289 290 292 295 295 295 294 293 293 294 295 295 297 292 290 288 289 289 287 289 289 289 289 289 288 289 291 289
300 300 300 300 299 300 300 300 302 302 303 303 304 303 303 303 303 303 305 306 306 305 306 307 307 307 307 307 308 311 313 313 312 312 310 309 310 310 311 311 310 304 303 301 299 297 296 295 294 294 294 294 295 295 292 289 289 290 289 289 295 294 292 293 293 293 294 296 296 298 293 290 288 289 289 288 288 288 288 289 289 289 289 288 289
299 299 299 299 299 299 299 301 301 302 303 303 303 301 301 302 302 304 306 306 306 307 306 306 306 306 306 307 310 311 311 310 309 309 308 308 308 308 311 310 306 303 301 299 298 297 296 294 294 294 294 295 295 294 292 291 290 290 289 289 288 292 289 294 295 294 294 294 296 297 295 289 289 289 289 289 289 289 289 289 289 288 288 288 288
298 299 299 299 298 299 299 300 301 301 301 302 302 301 301 302 302 305 305 306 306 306 306 306 306 306 307 306 306 307 308 309 309 309 309 308 309 310 308 306 304 301 299 298 298 297 296 295 294 294 295 295 296 294 291 291 291 289 289 289 288 288 290 295 296 294 294 295 296 295 291 288 289 289 289 289 289 289 289 289 288 288 288 288 288
297 297 299 298 297 298 298 299 300 301 301 302 302 301 301 301 303 304 304 304 304 305 305 305 305 305 306 305 306 307 307 308 307 307 307 306 309 308 306 305 302 300 299 297 296 296 295 295 294 294 294 295 295 295 293 291 289 289 289 289 288 288 288 288 292 294 296 295 291 289 289 289 289 289 289 289 289 289 288 288 288 288 289 289 289
297 297 298 298 298 298 298 298 299 300 300 301 302 302 301 302 303 303 304 304 304 304 304 304 304 304 304 304 304 304 304 305 307 307 306 307 307 303 302 302 300 299 297 296 294 293 293 292 292 293 293 293 294 294 295 294 292 291 290 289 288 288 289 289 290 293 290 289 289 289 289 289 290 290 290 290 291 292 290 289 289 289 290 290 290
296 297 297 297 297 297 297 298 298 300 300 301 301 301 301 302 302 303 303 304 303 303 303 304 304 304 303 303 303 303 303 304 305 306 306 307 306 303 301 298 298 296 295 294 293 292 292 292 292 294 294 294 293 294 294 295 294 294 293 292 290 291 290 289 291 293 291 291 291 291 290 289 289 289 289 289 288 289 290 292 291 291 291 291 290
297 297 297 297 297 296 297 297 298 299 300 301 301 301 301 302 302 303 303 303 303 303 304 303 303 303 302 302 302 295 299 302 303 304 304 304 303 301 298 296 294 295 293 293 292 292 292 293 294 294 294 295 294 294 294 294 292 292 293 294 294 293 292 292 291 289 289 290 291 290 290 291 293 293 292 291 291 291 290 289 290 290 290 290 291
296 297 297 296 296 296 297 297 297 299 299 300 300 301 301 302 302 302 303 302 304 300 302 302 302 302 301 302 301 301 301 301 299 295 294 294 297 300 298 296 297 297 296 295 294 294 294 295 294 294 294 293 291 290 290 288 288 288 289 291 291 291 291 292 290 287 288 290 290 290 288 290 288 285 286 286 288 288 287 289 290 290 289 290 289
296 297 297 296 297 297 297 297 297 299 300 300 300 301 302 302 303 303 303 303 303 303 301 301 300 300 300 300 300 300 300 297 295 293 291 290 287 289 292 292 289 289 289 290 291 293 295 293 291 293 294 292 290 289 287 288 288 288 287 287 287 288 288 289 289 287 287 285 286 287 287 287 286 286 286 286 287 287 287 287 287 287 287 287 287
296 295 295 295 296 297 297 297 298 300 300 300 300 301 302 304 304 304 303 302 302 300 299 299 298 298 298 298 298 298 298 295 294 292 291 289 289 288 288 288 289 289 289 289 289 289 289 290 291 289 288 288 287 287 287 287 287 287 287 287 287 287 287 287 287 286 285 285 286 287 286 286 286 287 287 287 287 286 286 286 286 286 287 287 287
Wind_Speed
10 8 6 9 8 6 6 5 6 7 8 8 8 9 9 9 9 8 6 6 5 5 4 4 4 4 3 5 5 3 5 3 4 6 6 6 5 5 4 4 3 3 3 1 2 1 0 2 3 7 5 5 5 4 5 3 1 3 2 4 3 2 2 1 2 2 2 1 3 1 1 2 2 3 4 3 2 4 4 5 4 6 7 9 5
12 8 7 4 8 6 6 5 6 8 8 8 8 9 9 10 9 8 6 5 5 4 3 4 3 5 3 5 4 5 6 5 5 4 4 3 2 2 2 1 2 2 1 2 2 2 1 1 3 3 2 3 5 4 3 1 0 0 1 0 1 2 1 2 3 2 0 1 2 2 1 3 3 3 3 3 2 1 5 5 4 4 5 5 9
10 11 13 13 8 8 7 5 5 6 8 8 8 9 9 9 8 7 5 5 4 4 4 5 4 4 2 2 3 7 7 6 5 3 4 5 2 3 1 1 2 3 2 1 1 6 3 2 3 3 2 2 3 5 5 4 3 1 1 1 2 1 0 2 2 1 1 1 2 1 0 0 0 0 1 1 2 1 2 4 4 4 5 6 4
12 12 12 9 7 5 6 6 5 5 7 8 8 9 8 8 8 7 6 5 5 5 5 6 5 6 6 8 7 7 5 5 5 4 3 4 5 3 2 2 3 4 3 4 6 2 1 3 6 4 4 4 1 4 4 5 3 4 3 2 1 2 0 3 2 1 1 3 1 2 0 0 1 1 1 1 1 1 0 1 0 2 3 3 3
11 11 9 8 10 9 7 7 6 7 7 8 8 8 6 9 9 8 7 6 5 6 7 6 6 6 6 6 6 6 4 4 4 3 3 3 4 3 2 2 3 3 3 5 5 6 5 5 3 3 5 5 6 2 3 3 5 4 3 3 2 2 2 1 2 1 2 0 2 0 1 1 0 0 0 2 1 1 0 1 1 2 2 3 3
11 13 13 8 6 5 2 2 8 7 8 7 8 8 7 9 9 8 6 6 6 6 7 6 5 6 5 5 4 4 4 4 4 3 2 3 4 2 3 4 4 4 6 5 5 4 5 6 6 6 5 5 5 5 6 4 5 4 1 2 2 2 4 3 1 1 4 3 2 2 1 1 0 1 1 1 0 0 0 1 2 3 2 1 2
8 9 10 9 7 6 4 1 8 7 8 8 8 8 8 9 9 8 7 7 7 7 7 6 6 5 4 4 4 4 5 4 4 4 5 4 3 4 3 2 4 5 4 4 4 4 4 3 3 2 2 1 3 5 5 5 5 4 4 5 5 2 1 3 2 2 4 3 3 2 3 2 3 1 1 1 1 1 1 1 1 1 3 4 3
11 11 12 10 10 8 7 6 6 13 7 9 8 8 9 10 10 8 7 8 7 7 7 6 6 5 4 3 4 4 5 6 4 4 4 4 4 4 4 2 3 3 3 3 4 4 3 3 3 4 3 4 5 5 5 5 5 4 5 5 5 6 5 3 2 2 2 2 3 3 3 2 4 4 3 3 1 1 1 1 1 1 0 0 1
14 11 11 13 11 10 8 7 7 14 11 9 9 9 8 10 9 8 8 8 8 8 8 6 6 6 4 4 3 5 7 5 5 4 4 3 3 2 4 4 4 4 4 4 4 4 3 3 4 4 5 5 5 5 4 5 4 4 4 4 4 4 5 5 5 5 5 2 2 3 3 3 3 2 3 2 1 1 2 2 2 1 2 2 2
7 8 7 9 12 14 13 11 9 12 12 9 9 9 9 10 9 10 9 8 9 9 8 7 7 6 5 4 4 6 6 5 4 5 5 3 3 3 3 4 5 3 3 3 3 4 3 3 4 3 3 3 3 3 4 4 3 4 4 4 4 4 4 5 4 4 5 3 4 3 1 2 3 2 1 2 1 1 1 2 2 1 1 2 3
9 9 8 7 6 8 8 10 12 17 13 9 9 10 10 11 11 11 10 9 10 9 8 8 8 7 5 5 5 7 6 5 7 5 5 3 3 3 2 4 4 4 3 2 4 4 4 3 2 3 3 3 4 3 3 3 3 3 3 4 4 4 4 5 5 5 4 6 5 5 5 4 4 3 3 2 2 2 2 3 5 2 1 3 3
3 6 7 6 4 6 11 14 17 16 8 9 8 8 8 10 12 12 12 11 11 9 8 8 8 7 5 5 5 7 5 5 7 6 5 4 4 3 3 4 4 4 2 3 3 3 3 2 2 3 3 3 3 4 2 3 4 4 3 4 4 4 4 5 4 5 5 4 4 5 5 5 6 5 4 3 4 3 3 3 4 3 4 4 2
8 12 8 2 1 0 2 4 11 10 10 9 9 8 7 8 10 11 12 13 11 10 9 9 8 8 7 6 5 6 5 6 6 5 5 4 5 3 4 4 5 4 3 4 3 2 3 2 1 4 3 3 3 3 3 2 4 3 3 3 3 3 3 4 4 4 4 5 3 3 5 5 5 3 2 2 2 0 2 3 4 6 4 4 5
9 10 7 3 3 1 2 3 4 9 10 9 9 6 7 7 10 10 11 13 12 11 10 9 8 7 7 7 5 5 5 5 6 5 5 5 5 4 4 4 5 4 4 4 4 3 3 2 3 3 3 3 3 3 3 3 1 4 3 3 3 3 3 4 3 3 3 3 3 3 4 4 4 4 3 4 4 4 4 4 4 4 3 5 4
9 8 7 6 4 3 4 3 1 3 6 7 7 6 5 7 9 10 11 12 12 12 10 10 8 8 6 8 5 5 4 4 5 4 5 4 5 4 3 4 5 5 5 4 5 3 3 3 3 3 2 3 3 2 2 1 2 4 3 3 3 3 3 4 3 3 3 3 3 3 4 3 3 4 4 5 4 4 2 1 2 4 4 4 5
8 8 7 7 5 5 4 3 4 3 3 5 6 5 4 4 6 10 11 11 12 12 11 10 9 7 7 8 6 7 5 4 3 5 4 3 4 5 3 3 3 4 5 4 5 4 3 3 4 3 3 3 3 2 3 3 0 2 4 2 3 3 3 3 3 3 3 3 2 3 4 4 3 3 4 5 5 5 3 2 2 2 4 4 5
6 7 7 7 7 6 5 5 4 3 5 3 3 3 5 5 5 0 5 7 11 11 11 11 8 8 7 7 6 6 6 5 4 5 5 3 2 4 4 3 2 4 5 4 5 3 4 4 4 4 4 3 3 2 1 3 1 1 4 2 3 2 2 3 3 3 2 2 1 1 3 5 3 2 3 2 2 4 5 3 3 0 1 2 3
10 9 9 9 9 9 7 6 5 4 3 3 1 2 1 2 4 8 3 9 7 10 9 10 9 8 7 6 6 4 5 5 4 4 5 5 2 3 3 4 2 3 4 4 5 4 4 5 4 4 4 4 4 4 3 4 2 2 4 3 3 3 3 3 2 3 3 3 2 2 2 5 2 2 1 0 3 1 2 3 3 3 2 0 0
9 9 8 8 8 8 8 8 9 7 4 2 2 3 1 0 2 9 7 5 15 4 8 7 8 6 6 6 5 4 3 3 3 3 4 5 3 2 2 3 2 2 3 4 4 4 3 4 4 4 4 4 4 3 3 4 3 2 4 3 4 3 3 3 3 3 1 2 1 0 1 3 1 1 2 3 1 0 2 3 4 4 3 3 2
9 9 9 9 8 8 9 7 9 9 7 5 3 1 2 2 7 9 9 3 8 12 2 6 6 5 6 6 5 4 3 3 3 2 4 4 4 3 3 3 3 3 2 4 4 4 3 4 4 4 4 4 3 3 4 3 4 3 5 4 4 3 3 4 3 2 2 3 2 1 1 3 2 3 1 3 2 1 1 0 2 2 3 2 2
9 9 9 9 8 7 8 8 8 6 7 7 7 5 2 2 4 8 12 12 8 5 9 4 2 4 5 4 4 3 3 3 2 2 1 2 2 2 2 3 3 3 3 3 4 5 5 5 5 5 4 4 4 4 3 3 4 3 4 3 5 3 3 3 3 3 2 3 3 3 4 2 1 1 1 1 3 0 1 1 3 4 4 3 2
8 9 9 9 9 7 6 9 9 9 8 7 6 6 7 4 6 3 9 10 9 7 5 0 3 2 3 3 5 3 2 1 1 1 2 2 3 2 2 3 3 3 4 3 4 5 5 5 5 6 5 5 6 5 4 3 3 3 3 3 4 4 3 3 4 4 3 2 3 1 1 5 3 0 1 3 3 4 3 3 2 4 5 4 4
8 8 8 9 8 8 9 9 9 9 9 7 5 4 5 5 4 4 4 4 5 5 5 6 7 8 6 5 6 5 4 3 2 2 2 2 1 2 1 3 3 3 4 5 5 5 6 6 6 6 6 5 6 5 4 4 4 4 3 3 3 4 4 2 4 4 4 3 3 1 1 2 2 1 0 2 1 2 2 3 3 3 3 3 3
8 7 6 7 9 9 10 10 9 8 7 7 6 7 5 5 4 4 4 6 5 6 6 6 6 5 3 2 2 3 4 1 1 1 2 6 6 2 4 4 4 3 3 3 4 5 6 7 7 6 6 5 5 5 5 5 4 3 3 3 3 2 2 3 2 3 3 5 4 3 2 2 3 1 2 1 2 2 1 3 3 4 3 3 2
8 7 6 6 6 8 9 10 9 9 9 6 7 7 6 4 4 5 5 3 3 4 5 6 5 4 3 1 0 3 4 3 1 1 2 3 6 7 2 4 4 6 6 2 5 5 8 8 7 7 6 6 6 6 6 7 6 4 3 3 3 3 2 3 2 3 3 2 5 3 3 3 3 0 1 1 1 3 3 3 4 4 4 3 3
8 7 5 5 5 7 7 6 9 9 9 9 7 7 7 7 5 4 5 4 4 4 7 6 7 8 7 7 5 4 4 3 2 1 1 3 5 6 5 5 7 8 7 8 9 9 6 8 8 7 6 7 7 8 8 8 9 8 6 4 4 5 3 3 2 2 3 1 2 3 2 0 1 1 1 0 1 1 2 2 3 4 4 5 5
8 7 6 5 6 6 7 6 6 6 7 7 8 8 8 5 5 5 5 4 2 2 3 5 5 5 5 5 6 5 4 4 5 5 6 6 7 2 2 2 4 7 8 8 7 6 3 9 10 7 10 8 7 7 5 5 7 7 7 7 6 5 5 3 2 3 1 2 1 1 1 1 1 1 1 1 1 0 2 3 3 3 3 3 4
7 7 7 7 7 6 5 4 4 5 6 6 7 7 6 5 6 6 5 2 2 2 2 2 1 2 2 6 6 5 6 6 5 5 5 6 5 6 6 6 4 9 10 9 8 3 5 1 6 5 6 5 4 6 9 9 6 5 6 7 7 7 5 5 3 2 1 1 2 1 1 1 2 2 1 0 2 2 2 3 4 4 5 5 5
6 7 7 7 6 5 4 4 4 4 4 5 7 6 4 4 5 5 3 3 2 2 1 2 2 1 1 2 1 4 5 5 5 6 7 7 6 5 8 9 9 12 11 6 3 3 2 5 5 7 5 2 3 1 2 7 5 7 3 7 8 7 7 5 5 4 2 1 1 1 1 2 2 6 5 4 2 2 1 2 3 3 4 4 5
8 9 8 7 5 4 3 2 2 5 6 5 4 4 5 4 3 3 3 2 3 1 2 2 2 1 2 1 1 2 2 2 4 5 6 7 6 5 6 7 8 10 9 6 6 5 7 8 9 8 6 5 6 4 8 12 8 9 6 3 4 5 5 5 5 4 3 2 2 2 2 4 8 5 4 4 5 5 5 5 4 3 4 4 4
7 7 6 6 4 5 4 3 2 3 4 4 2 3 3 4 3 2 3 2 4 3 2 1 2 1 2 2 2 2 2 2 2 2 2 2 4 5 6 6 7 7 6 6 8 11 9 7 8 6 2 3 3 4 10 11 6 8 6 3 5 5 5 5 4 5 4 4 3 3 3 4 5 4 4 8 8 9 9 10 10 10 7 4 3
3 8 7 7 7 5 4 3 3 3 5 3 1 2 4 3 3 2 2 3 2 0 1 1 1 1 2 2 2 2 2 2 1 2 2 3 3 3 4 4 5 4 4 3 3 7 6 6 6 9 8 5 4 1 5 9 6 4 3 3 4 5 4 4 3 4 2 2 2 1 0 1 1 3 3 3 7 10 10 11 12 12 12 12 10
7 8 6 5 5 6 5 2 4 1 1 4 3 3 4 3 1 0 1 1 1 1 1 1 1 2 3 3 2 2 2 2 3 3 2 2 3 3 4 4 3 4 4 4 3 3 6 5 5 5 5 3 2 1 6 7 7 8 8 6 5 4 5 5 4 3 2 1 1 1 2 1 2 4 2 4 4 5 11 14 12 10 9 9 11
6 6 8 5 2 6 5 4 5 3 5 3 2 2 2 1 2 1 2 2 3 1 2 2 1 1 2 2 3 3 3 3 3 3 3 3 3 3 3 3 4 4 3 4 3 3 3 4 5 4 4 6 4 4 7 9 10 12 10 7 5 5 5 4 3 3 2 0 1 0 1 2 2 2 3 3 3 3 3 0 2 3 5 9 12
2 4 2 5 6 6 2 3 4 3 2 4 4 3 1 1 0 1 1 2 2 4 2 1 1 2 2 2 3 3 3 3 3 4 4 4 4 4 3 3 3 3 4 3 3 4 3 3 1 5 7 6 5 5 9 11 12 13 13 8 6 5 5 4 3 2 1 0 0 1 3 3 3 4 1 3 2 3 3 3 4 4 4 5 5
5 6 6 5 2 2 3 3 4 5 7 4 1 1 0 1 2 2 3 3 3 3 4 2 2 2 3 3 3 3 3 3 3 3 3 4 4 3 3 3 3 3 3 3 2 3 3 1 8 8 8 7 5 6 9 11 12 12 12 6 5 4 4 3 1 1 2 1 2 2 3 4 3 2 5 5 3 1 1 3 4 4 5 5 5
4 3 3 2 2 1 4 1 2 5 6 5 4 3 2 3 3 4 4 4 2 4 4 2 2 3 3 2 3 3 3 3 3 3 3 3 3 4 4 3 4 3 3 3 3 1 5 9 7 7 8 7 5 6 10 11 12 12 8 5 4 3 2 2 1 1 1 2 3 3 3 4 3 2 7 7 5 2 1 3 4 5 5 5 6
6 4 2 0 2 2 3 3 4 3 5 6 4 2 3 3 4 4 4 5 5 5 5 5 5 4 3 3 3 3 3 3 2 3 3 3 3 2 3 2 3 3 4 2 3 8 7 7 7 7 8 8 6 5 10 11 12 12 8 4 3 1 1 2 2 2 2 3 3 6 2 2 4 2 7 7 5 4 2 3 4 6 6 6 6
5 4 2 5 1 2 4 5 7 8 7 4 4 4 5 5 4 4 5 5 5 5 5 5 4 4 4 4 3 4 4 3 4 4 3 3 3 3 3 3 3 3 3 6 6 6 7 6 7 9 11 11 7 5 9 11 12 11 7 3 3 2 1 1 1 2 2 2 1 1 3 3 10 9 10 9 8 6 3 4 6 6 7 8 7
4 4 4 11 6 2 3 7 9 6 4 6 5 6 5 4 5 5 6 6 5 5 5 5 4 4 3 3 3 3 3 3 4 4 3 4 3 3 3 3 2 6 7 5 6 6 7 7 6 7 7 7 9 5 7 11 11 10 8 5 3 3 4 4 4 5 4 4 4 3 9 12 11 11 8 7 6 5 3 3 3 5 7 10 4
6 6 5 5 6 6 8 9 7 7 7 7 6 5 6 6 5 5 6 6 5 5 5 6 5 5 5 5 4 3 3 2 3 3 3 3 3 3 3 4 3 5 5 6 7 7 7 6 5 5 6 5 5 6 5 9 9 9 10 8 3 5 4 5 4 4 3 3 4 2 4 7 9 9 9 5 5 3 1 2 3 5 6 8 9
9 8 9 7 8 7 8 8 8 9 9 7 6 7 7 7 6 5 5 4 6 7 6 5 5 5 5 5 4 3 2 2 3 3 4 4 4 5 3 4 5 6 7 7 6 6 6 6 5 5 5 5 5 7 5 6 8 8 7 6 4 4 3 2 2 3 3 3 4 1 4 5 7 5 2 1 4 5 7 4 6 9 11 11 9
8 9 10 8 8 9 9 6 6 6 6 7 8 8 7 6 7 6 6 6 6 5 6 6 6 7 5 4 3 3 3 3 4 4 4 6 6 6 2 5 8 7 7 6 6 6 7 6 5 5 4 5 5 5 7 5 5 6 4 4 2 1 4 2 1 2 4 4 3 4 6 4 1 2 1 4 6 9 7 5 10 11 11 13 10
9 11 12 11 11 11 9 8 8 8 8 8 7 7 7 7 8 6 5 5 6 7 7 7 5 5 4 4 6 5 4 3 4 3 3 3 3 2 5 5 6 7 6 6 5 5 6 6 6 5 4 4 4 4 5 7 6 7 6 6 5 5 5 1 1 1 3 3 3 4 7 12 11 11 9 9 10 10 8 12 13 15 15 12 6
13 13 12 12 13 13 12 12 10 9 8 8 7 8 8 8 7 6 7 7 7 7 6 6 6 6 5 6 4 3 4 3 3 5 4 4 1 3 4 4 6 5 6 6 6 6 6 6 6 6 5 4 4 4 4 7 10 9 9 9 9 8 7 4 1 4 3 2 8 11 11 10 10 10 12 11 10 12 15 14 13 13 10 5 6
12 10 10 11 12 11 10 11 12 11 10 9 8 7 8 7 7 8 8 8 7 7 7 7 8 6 6 8 7 6 5 4 3 2 3 4 2 2 3 3 5 4 5 6 7 7 6 6 6 5 5 5 5 4 5 4 5 5 6 8 9 8 7 7 6 4 10 12 10 8 9 9 11 11 8 6 5 5 8 12 13 12 7 6 5
15 14 13 12 11 11 11 10 10 10 10 9 10 9 8 8 8 8 8 7 7 7 7 7 6 7 7 6 7 3 3 3 4 3 2 2 3 4 4 4 4 5 5 6 7 8 7 7 6 6 6 6 5 5 5 4 3 3 4 5 4 4 5 4 1 0 3 3 5 4 6 10 11 14 14 12 10 10 7 5 3 4 5 6 6
14 13 13 13 11 11 10 10 10 9 9 8 9 10 11 10 10 10 8 7 8 9 6 5 5 6 6 5 5 5 3 3 4 1 2 1 0 3 4 4 4 6 7 7 7 7 8 7 7 7 8 7 6 4 4 4 4 3 4 4 4 6 4 4 4 4 3 4 4 6 8 7 6 3 2 1 2 3 4 4 4 4 5 6 8
14 12 10 11 11 12 11 10 9 9 10 10 10 10 12 12 10 10 8 8 3 5 4 4 4 5 5 2 2 4 3 2 4 5 5 4 3 1 4 3 2 2 5 7 7 7 8 8 7 7 6 6 6 6 3 3 5 6 4 4 4 4 4 3 4 4 4 5 4 6 5 4 3 3 3 3 3 3 3 4 6 5 6 6 6
15 12 13 13 12 10 10 11 10 9 10 11 11 10 10 11 10 9 7 4 2 2 3 4 4 4 4 4 2 3 1 3 3 4 5 6 12 14 7 6 4 9 12 9 7 4 6 8 9 7 6 7 5 5 6 8 8 6 5 4 2 1 1 1 3 5 2 2 4 5 4 3 4 4 4 3 3 3 3 4 4 6 5 6 6
16 15 15 14 13 12 11 12 10 10 10 10 10 10 7 5 6 6 4 3 3 3 4 3 4 4 3 2 2 3 3 4 4 5 6 8 7 9 13 13 11 12 15 16 16 17 16 14 13 10 11 16 13 10 8 7 5 4 3 2 2 3 4 4 4 4 1 2 3 4 3 4 4 3 3 3 3 3 4 5 5 5 5 6 6
Wind_Direction
156 153 163 171 203 150 146 140 139 142 135 145 143 133 132 134 135 130 130 132 143 151 155 152 142 129 115 99 122 148 100 106 56 45 52 53 26 41 27 48 37 46 344 54 78 193 164 43 118 159 186 149 163 201 221 252 163 164 168 196 216 213 219 132 74 135 101 348 150 176 223 236 202 177 169 229 271 320 323 312 335 338 340 332 289
174 174 166 205 189 158 138 144 153 157 152 151 148 139 139 138 137 130 137 150 148 152 119 120 140 129 149 140 157 137 150 141 105 90 76 70 83 49 37 75 157 126 109 83 302 110 29 106 110 55 51 137 174 162 158 18 352 202 185 60 144 244 235 125 164 152 129 125 35 13 224 194 210 180 158 176 160 249 298 309 322 337 340 340 342
177 158 170 188 184 161 157 153 162 168 156 156 147 144 142 142 135 137 144 144 139 110 117 94 62 59 87 83 94 84 55 67 92 102 110 120 154 127 106 16 61 121 144 207 139 46 21 328 83 110 115 121 95 105 121 141 122 35 52 28 19 102 200 125 158 206 96 98 113 40 301 69 344 313 121 160 211 204 235 273 311 335 342 343 356
179 166 178 164 175 167 160 162 175 171 167 163 154 151 148 143 140 141 145 140 125 125 106 90 78 81 65 65 52 82 95 84 84 92 118 106 69 61 62 347 32 40 8 65 74 86 337 23 55 33 34 13 82 136 134 133 138 142 162 158 176 106 91 65 41 96 77 107 122 190 197 108 355 46 60 70 67 141 197 273 52 309 331 344 356
169 168 170 170 168 191 181 163 180 177 182 170 162 154 156 144 143 144 148 137 135 123 109 99 98 87 79 83 87 90 100 121 130 116 100 103 113 82 66 63 57 55 55 60 58 43 28 23 34 94 28 28 9 24 83 76 123 155 146 126 148 165 95 90 48 77 113 68 118 134 135 141 119 66 318 97 128 127 288 193 172 270 353 352 346
172 172 169 169 160 160 201 195 187 183 189 173 165 153 154 144 145 147 144 137 133 121 116 119 122 118 119 117 114 115 123 151 125 129 139 91 91 128 71 53 47 35 64 55 48 55 42 38 19 38 52 31 20 30 34 33 44 41 96 144 161 106 117 96 82 52 97 85 85 104 61 112 93 342 336 127 126 138 317 35 38 353 338 272 240
161 164 164 163 141 137 176 42 322 237 190 167 165 157 155 144 148 150 146 138 136 128 131 138 131 126 137 137 151 144 137 106 95 81 91 110 91 84 94 57 76 70 53 70 78 65 59 38 25 56 114 99 63 41 34 33 38 40 12 24 26 102 141 122 163 132 114 143 164 114 114 148 100 65 86 351 302 4 63 339 28 8 13 345 338
178 177 174 163 148 163 188 180 179 267 201 168 167 160 160 148 153 152 146 140 141 135 142 145 137 139 152 146 158 144 121 113 110 92 88 86 114 126 126 119 100 102 84 85 86 79 68 63 31 8 14 106 74 54 65 41 33 34 37 21 29 27 23 28 110 166 130 137 132 151 163 145 133 134 161 133 159 334 322 272 199 188 189 51 301
170 175 177 164 159 165 154 151 190 251 236 173 167 164 161 150 154 151 147 142 145 145 147 151 137 145 154 143 164 119 115 120 121 121 112 108 125 130 84 86 56 56 83 77 83 97 92 66 49 37 25 38 81 78 55 61 59 47 35 30 49 50 30 26 37 37 44 41 147 172 175 169 160 178 154 165 137 168 263 268 285 224 210 195 201
150 151 154 144 152 164 169 167 187 240 240 168 167 163 162 152 157 155 148 147 149 152 154 152 143 149 159 158 161 124 133 141 128 122 124 154 111 90 117 107 106 99 68 88 87 80 89 92 67 47 38 62 95 104 109 83 80 73 59 50 46 54 49 43 40 36 50 14 25 21 64 129 136 120 152 203 223 205 208 282 212 245 321 242 195
196 174 164 148 138 140 142 164 182 218 222 168 170 171 167 159 163 160 152 150 153 157 159 157 146 160 155 167 151 136 146 141 129 134 137 150 132 126 141 124 118 96 95 70 78 68 64 63 90 93 58 28 51 73 80 93 90 75 90 78 55 55 54 46 32 24 64 44 25 18 19 42 35 46 55 22 10 23 357 347 344 305 248 267 220
151 137 111 87 133 159 167 194 202 198 195 162 165 171 174 163 166 160 155 152 156 160 161 161 152 161 156 162 148 146 155 143 140 147 149 146 142 161 132 116 110 124 132 92 104 114 85 82 88 89 60 44 45 36 51 90 74 72 54 46 52 47 54 64 44 31 25 59 52 16 15 37 43 35 18 35 41 19 7 324 302 327 334 348 46
90 71 67 28 45 339 273 205 189 182 184 168 161 168 173 169 174 166 158 152 160 161 163 163 157 164 159 160 150 148 157 142 145 149 156 148 151 170 149 146 130 133 152 142 114 142 127 111 105 93 81 49 45 66 65 68 108 83 77 77 68 74 73 65 58 46 38 24 16 52 48 36 40 38 8 357 103 326 336 344 353 355 346 324 305
62 75 93 82 47 39 204 219 230 173 172 170 154 165 176 170 178 177 165 156 158 162 161 165 161 164 155 154 150 149 156 152 150 154 161 156 159 169 162 160 150 152 154 146 153 150 141 166 88 89 101 105 102 62 31 15 18 110 76 82 87 64 58 59 68 73 51 37 9 55 64 37 23 14 348 2 40 38 27 39 344 330 333 312 300
73 73 72 75 77 48 19 14 142 152 161 160 142 163 187 187 183 181 172 162 161 160 159 163 162 165 153 151 157 148 158 162 152 157 159 172 159 161 179 159 150 154 153 143 146 179 137 141 124 111 119 101 107 143 117 83 5 82 100 93 81 66 75 81 63 58 48 36 21 354 82 65 46 2 10 20 29 32 41 58 7 347 336 323 339
76 86 87 87 88 83 62 39 33 352 115 122 143 159 182 201 198 195 176 166 165 161 159 161 162 163 156 152 161 152 166 163 164 150 161 183 157 152 178 166 152 152 145 143 150 174 147 151 143 158 143 146 148 136 188 132 104 105 110 103 103 114 133 146 132 91 81 76 24 347 69 63 26 24 39 23 26 353 354 22 18 12 356 338 333
86 88 88 89 85 87 87 60 26 41 57 82 113 142 176 186 199 53 306 190 166 165 157 158 157 159 161 152 160 157 166 168 185 159 159 183 160 148 165 174 162 147 149 144 156 181 159 166 164 165 166 171 166 167 166 127 152 148 113 142 126 141 111 60 65 95 107 89 44 6 85 84 32 30 69 25 33 13 348 337 334 2 119 341 351
105 95 85 77 71 66 74 80 78 36 57 42 97 86 62 254 160 165 160 291 206 159 161 154 154 157 159 154 159 164 162 168 182 163 151 161 183 142 155 163 193 152 146 156 152 189 168 189 176 165 173 177 172 177 191 134 179 174 130 174 145 132 119 145 148 137 111 87 41 17 55 86 44 23 102 102 80 311 320 341 335 341 33 341 5
90 88 84 76 76 76 61 61 63 50 49 76 82 102 189 166 116 91 104 272 293 252 150 151 144 148 153 154 155 161 161 169 168 165 146 156 168 168 164 161 175 177 159 150 164 185 186 190 197 182 174 185 177 183 195 151 179 181 138 197 128 159 179 158 151 112 126 120 136 94 58 97 36 7 310 66 46 52 13 352 360 349 339 0 332
90 85 82 79 69 68 82 91 76 50 39 39 55 74 146 218 114 124 124 65 312 309 313 141 143 138 145 152 156 157 165 176 168 180 152 156 163 172 179 175 180 169 194 160 170 194 198 196 205 207 181 186 187 189 189 171 177 189 156 195 152 187 195 159 138 156 155 144 123 144 36 79 70 325 33 35 317 270 116 265 300 311 315 309 333
95 95 93 95 101 101 86 75 80 80 59 43 28 28 57 58 104 136 134 156 191 235 294 315 97 114 117 124 138 148 154 155 187 185 189 136 169 190 194 182 170 185 188 183 177 203 212 207 206 214 198 187 186 195 187 204 176 213 159 204 152 188 213 157 160 160 174 156 183 177 154 121 86 279 15 295 261 17 337 263 234 239 252 270 265
101 103 99 97 94 91 104 122 118 101 86 60 41 35 17 38 67 78 144 155 161 157 158 275 52 47 114 139 113 97 79 62 319 297 177 179 172 183 227 247 209 199 190 200 200 202 219 217 213 214 213 194 191 191 183 194 192 214 179 219 154 178 222 184 159 164 172 186 118 331 198 137 177 90 57 309 16 7 325 299 342 23 351 334 347
103 99 104 102 97 95 82 70 87 107 113 110 99 71 59 42 42 32 64 107 120 112 85 68 57 25 31 48 68 74 45 24 10 359 353 300 341 307 227 239 240 236 220 210 223 210 214 226 218 216 217 208 194 193 179 183 202 205 198 200 179 174 208 225 159 177 178 166 129 187 327 102 87 202 162 266 276 278 320 338 340 339 319 322 306
105 106 111 118 121 118 109 108 100 80 85 108 127 138 135 118 89 86 50 44 69 99 102 83 79 63 7 48 89 100 99 129 204 132 80 17 348 352 25 357 348 335 311 275 218 237 232 221 227 220 217 216 199 190 180 176 197 210 211 201 186 188 202 239 171 184 206 159 160 174 194 142 144 178 234 331 312 301 4 351 339 307 300 294 271
112 109 97 102 108 111 112 112 109 113 116 108 91 82 82 88 120 130 130 119 111 119 130 132 119 135 140 125 316 75 95 105 88 43 115 175 244 270 232 221 267 275 260 267 283 270 246 230 225 224 224 219 212 197 192 178 178 187 212 194 172 186 224 233 202 190 234 162 158 168 185 183 143 119 25 277 304 21 343 340 321 319 299 301 330
114 112 113 98 90 88 95 112 119 124 121 114 110 110 112 111 99 90 103 136 165 166 162 151 160 168 168 182 176 160 147 149 133 129 210 206 219 222 209 235 245 249 253 248 245 229 242 256 239 238 237 230 217 214 205 191 182 180 191 191 182 171 191 209 208 217 208 128 124 155 178 140 112 164 189 4 29 319 340 318 316 320 318 312 296
127 114 99 91 79 85 82 65 71 88 96 105 114 117 117 115 104 88 79 61 40 47 60 114 156 160 167 170 174 181 166 177 181 195 210 214 215 195 48 313 266 256 249 250 262 282 312 28 22 349 291 281 250 239 238 204 188 183 184 182 172 167 170 167 208 204 161 119 148 199 154 159 174 184 206 190 201 56 20 338 312 306 302 312 311
133 144 137 126 113 105 98 101 106 104 98 92 85 90 94 98 105 100 88 70 36 17 92 107 96 91 144 164 177 177 174 178 187 210 233 235 200 153 205 212 221 263 252 233 231 206 74 182 215 238 269 279 347 10 11 341 290 208 188 174 169 163 173 165 161 142 145 153 155 155 186 182 204 222 222 295 69 58 39 345 324 327 321 313 303
162 138 132 125 132 122 114 110 90 97 99 120 127 111 95 80 84 98 107 99 75 24 2 63 80 182 105 60 114 166 178 181 187 199 211 215 222 187 190 209 202 230 239 229 300 350 247 234 244 244 254 333 336 78 224 253 295 309 206 170 171 166 159 159 154 150 164 148 161 187 194 237 89 92 83 90 102 83 16 286 287 291 295 305 301
196 162 155 149 129 118 107 89 105 124 135 118 84 102 114 101 84 85 107 107 123 83 29 19 338 33 110 231 190 145 180 190 204 210 200 198 214 217 205 208 213 217 223 178 185 235 241 204 194 202 207 204 230 206 221 236 249 256 261 187 159 152 148 144 145 146 155 186 192 220 213 183 133 169 172 223 252 236 208 219 246 267 292 302 308
215 156 182 132 145 155 145 137 115 74 64 66 56 92 71 90 75 75 81 22 40 32 18 358 331 352 1 345 271 259 225 208 222 245 267 271 227 215 208 217 225 226 230 227 184 183 192 185 190 209 196 228 213 220 203 203 241 299 232 184 149 153 148 137 150 153 158 175 198 221 223 193 180 191 219 228 230 228 227 229 235 242 243 242 269
190 146 200 165 160 174 167 132 132 164 135 109 138 145 118 97 81 5 57 79 76 2 317 345 302 323 262 273 321 342 331 312 296 256 241 241 258 264 258 238 214 213 224 224 213 160 182 177 189 208 212 193 162 118 215 219 229 239 250 144 127 130 129 120 111 111 121 181 216 241 69 33 205 216 229 223 225 230 233 232 233 232 234 241 235
232 203 202 212 202 132 92 46 242 126 58 121 126 85 66 39 64 233 44 153 180 189 322 324 315 312 319 312 317 259 258 261 258 275 289 286 290 299 298 297 279 232 203 203 222 197 179 190 197 206 209 136 115 123 166 167 161 144 133 126 117 114 114 101 100 124 174 137 84 43 6 330 300 286 221 233 245 231 225 233 234 242 250 249 250
258 205 209 209 105 73 99 81 351 16 23 350 350 67 98 197 301 346 350 342 323 280 206 194 206 277 302 310 310 319 305 302 291 269 261 268 265 265 266 276 297 305 250 200 196 219 218 208 197 199 105 92 98 71 113 116 111 106 107 103 102 101 99 104 115 114 108 79 83 55 290 277 277 307 308 315 328 325 349 178 223 221 229 242 241
196 160 161 66 61 69 90 104 270 11 320 262 227 126 159 275 105 314 349 313 292 291 316 306 252 237 224 218 230 244 271 291 321 329 333 321 317 312 311 305 295 278 282 229 201 219 219 236 272 84 96 76 53 73 104 99 91 87 84 82 85 78 82 84 91 91 89 110 249 230 245 255 260 266 36 61 17 344 339 332 332 321 309 304 297
91 63 62 74 76 16 5 346 6 297 272 270 42 78 116 317 326 303 274 265 287 312 297 306 301 314 289 293 281 258 238 240 247 250 259 267 269 265 258 260 264 283 291 290 239 196 206 114 87 105 95 93 79 74 84 79 75 72 82 88 85 76 76 69 77 131 166 169 224 225 229 241 247 257 118 95 83 17 334 309 296 289 286 282 278
56 109 83 68 31 322 249 214 257 294 311 323 322 329 336 320 310 304 311 310 299 278 280 278 270 271 290 300 305 296 294 285 285 288 290 284 274 280 291 287 286 281 279 272 257 232 67 91 101 96 105 101 95 71 81 74 59 50 64 83 84 88 108 140 166 184 217 221 225 230 238 244 246 258 146 151 162 147 256 279 278 280 282 286 281
142 152 176 243 231 257 298 259 252 275 291 275 277 326 324 300 293 298 305 309 314 318 323 320 308 303 289 283 285 301 294 290 276 263 264 267 275 274 273 295 285 287 289 349 23 72 80 87 95 99 106 109 94 58 74 69 59 46 48 61 94 110 126 212 187 196 212 228 248 249 219 241 248 348 102 84 50 4 326 306 301 296 294 290 289
14 9 275 246 252 344 294 316 320 283 271 286 294 292 287 283 285 295 302 299 296 292 293 293 305 314 314 299 298 296 301 301 303 304 311 309 315 311 297 294 291 298 66 65 62 85 83 85 88 107 113 112 107 85 78 78 66 52 48 26 33 14 28 8 309 286 266 278 322 265 240 26 62 84 76 71 40 27 350 345 335 324 303 294 294
268 268 29 19 3 23 285 260 255 252 260 271 272 265 263 276 277 265 263 267 279 288 287 295 289 280 284 298 291 279 265 268 263 260 261 264 269 283 293 292 7 57 83 84 86 80 85 85 96 103 110 116 118 115 105 92 80 66 50 41 35 32 14 12 6 9 7 347 346 334 62 88 94 89 105 97 79 51 37 336 331 302 296 289 328
287 288 13 335 315 303 290 296 303 307 294 281 276 275 267 263 259 258 259 262 267 279 288 282 283 277 274 276 285 281 283 294 311 306 310 304 292 278 270 262 118 98 90 95 96 97 95 99 97 102 106 110 116 121 106 94 85 75 54 50 27 43 31 28 11 352 336 331 301 59 91 81 85 60 45 32 17 10 271 281 277 273 274 297 316
303 331 323 286 256 238 250 259 264 269 278 278 265 258 259 259 260 265 275 288 287 273 270 276 275 283 291 291 284 290 333 340 326 313 290 296 290 281 271 264 125 112 108 103 106 106 106 104 106 104 113 115 124 123 125 87 87 75 70 60 52 61 51 8 2 326 313 305 321 19 128 112 92 109 81 153 243 249 243 248 258 257 272 279 278
289 286 269 265 284 280 273 268 264 266 271 275 281 282 282 282 270 266 264 260 268 291 289 286 285 283 283 281 285 294 285 261 252 255 258 251 247 242 203 82 101 111 114 114 111 115 114 116 115 123 127 127 125 114 115 112 113 117 128 90 123 67 59 42 315 319 327 319 343 326 110 134 38 16 334 327 316 296 293 260 259 266 269 270 275
277 274 280 284 280 281 291 293 281 269 269 270 263 267 269 275 277 285 285 286 281 272 273 272 275 275 277 276 276 270 260 257 260 268 277 287 293 101 106 116 121 122 125 121 118 119 124 128 134 127 130 132 123 122 149 155 170 178 167 188 186 197 196 215 44 277 298 304 314 1 351 352 8 351 336 307 291 282 269 271 272 272 273 277 278
268 269 282 290 285 283 279 272 269 263 247 246 261 278 285 283 288 291 286 286 282 280 282 285 277 274 273 280 286 300 310 332 351 327 305 289 87 147 147 137 126 132 136 133 137 139 139 144 140 142 141 139 143 148 169 188 186 187 188 194 202 203 211 199 184 248 246 340 340 337 346 347 333 311 287 281 280 274 263 263 267 272 276 272 265
287 303 295 281 278 277 290 300 301 299 305 301 277 258 265 270 273 267 266 268 281 283 278 276 280 286 293 295 295 291 291 310 319 299 294 292 126 111 108 119 127 131 138 140 145 145 142 140 138 144 143 146 153 162 183 193 205 200 204 209 208 204 212 210 225 318 327 322 333 344 322 298 280 272 273 261 244 263 305 306 296 289 278 264 255
289 274 263 267 273 272 276 285 290 287 284 293 309 311 302 297 290 287 285 284 284 295 293 290 296 289 283 285 284 317 9 349 317 310 292 290 151 150 141 144 145 148 151 148 149 146 143 144 151 155 160 160 168 178 186 182 189 190 210 209 202 234 230 248 255 1 360 346 328 309 270 267 266 264 266 274 278 281 278 272 304 326 327 321 316
278 283 280 272 273 280 272 266 270 279 284 285 284 281 280 279 281 284 284 282 275 268 279 297 303 310 312 330 338 78 54 308 279 317 332 350 150 131 141 151 167 166 157 150 143 151 152 162 171 170 166 171 161 122 73 71 57 47 39 60 66 62 51 55 43 15 350 333 303 273 264 257 263 273 289 6 350 349 341 344 327 317 315 313 310
277 282 298 302 293 283 287 300 301 300 295 289 281 277 274 273 269 268 275 276 309 351 322 306 305 302 308 17 11 310 321 14 63 58 44 22 348 129 122 99 46 143 149 148 153 156 171 177 162 153 147 109 94 86 78 87 90 72 64 57 56 60 50 48 83 70 331 294 303 294 277 286 343 354 2 352 354 351 342 329 318 310 304 306 305
283 283 284 287 296 304 299 290 290 293 284 275 269 266 262 267 273 275 276 301 329 309 299 299 331 337 344 338 329 315 326 100 117 115 97 63 42 44 53 98 83 80 87 89 101 111 100 92 78 52 70 107 108 118 130 97 86 86 87 96 108 126 154 288 326 344 304 301 274 276 292 356 360 5 344 334 324 332 319 314 307 304 305 307 308
301 296 289 286 283 280 283 289 283 269 267 273 273 273 288 31 6 336 324 291 314 348 343 337 329 324 1 352 301 256 181 138 121 114 110 108 100 59 56 73 84 81 83 82 82 83 82 86 95 89 71 85 104 111 108 114 131 136 156 164 231 259 267 281 311 328 293 254 283 277 334 5 6 336 330 328 331 326 324 318 308 309 307 303 304